Tracking 19908 objects as of 18-Oct-2019
HD Live streaming from Space Station
objects crossing your sky now

IRIDIUM 33 DEB


IRIDIUM 33 DEB is no longer on orbit


NORAD ID: 34374
Int'l Code: 1997-051FS
Perigee: N/A
Apogee: N/A
Inclination: N/A
Period: N/A
Semi major axis: N/A
RCS: N/A
Launch date: September 14, 1997
Source: United States (US)
Launch site: TYURATAM MISSILE AND SPACE COMPLEX (TTMTR)
Decay date: 2016-03-18

Note: This is SATELLITE DEBRIS
aabbcc
Your satellite tracking list
Your tracking list is empty




NASA's NSSDC Master Catalog

Two Line Element Set (TLE):
1 34374U 97051FS  16078.04335578  .26543157 -13794-5  14773-1 0  9996
2 34374  86.4255 121.2375 0010641 256.4945 103.5167 16.19327965374614
Source of the keplerian elements: AFSPC